Regional Weather Roundup
Issued by NWS Little Rock, AR

Home | Current Version | Previous Version | Text Only | Print | Product List | Glossary Off
Versions: 1 2 3 4 5 6 7 8 9 10 11 12 13 14 15 16 17 18 19 20 21 22 23 24 25 26 27 28 29 30 31 32 33 34 35 36 37 38 39 40 41 42 43 44 45 46 47 48 49 50

000
ASUS44 KLZK 300605
RWRLZK

WEATHER ROUNDUP FOR ARKANSAS
NATIONAL WEATHER SERVICE LITTLE ROCK AR
100 AM CDT TUE JUN 30 2015

NOTE: "FAIR" INDICATES FEW OR NO CLOUDS BELOW 12,000 FEET WITH NO
SIGNIFICANT WEATHER AND/OR OBSTRUCTIONS TO VISIBILITY.

ARZ001-003-010-029-300700-
NORTHWEST ARKANSAS

CITY           SKY/WX    TMP DP  RH WIND       PRES   REMARKS
FAYETTEVILLE   CLEAR     66  66 100 S5        30.00F
6HR MIN TEMP:  66; 6HR MAX TEMP:  81;

FORT SMITH     CLEAR     75  66  73 CALM      29.95S
6HR MIN TEMP:  75; 6HR MAX TEMP:  89;

HARRISON       CLEAR     68  64  87 W5        29.98F
6HR MIN TEMP:  68; 6HR MAX TEMP:  81;

BENTONVILLE    CLEAR     68  63  83 S3        30.00S
6HR MIN TEMP:  68; 6HR MAX TEMP:  82;

ROGERS         CLEAR     71  65  81 CALM      30.00F
6HR MIN TEMP:  70; 6HR MAX TEMP:  82;

SILOAM SPGS    CLEAR     68  63  83 CALM      29.99S
6HR MIN TEMP:  68; 6HR MAX TEMP:  82;

HIGHFILL       CLEAR     68  64  87 CALM      29.99F
6HR MIN TEMP:  68; 6HR MAX TEMP:  84;

$$

ARZ004-005-016-300700-
NORTH CENTRAL ARKANSAS

CITY           SKY/WX    TMP DP  RH WIND       PRES   REMARKS
BATESVILLE     CLEAR     73  66  78 NW6       29.92S
6HR MIN TEMP:  72; 6HR MAX TEMP:  88;

FLIPPIN        CLEAR     70  64  83 CALM      29.93F
6HR MIN TEMP:  70; 6HR MAX TEMP:  86;

MTN HOME       CLEAR     68  66  93 CALM      29.95F
6HR MIN TEMP:  68; 6HR MAX TEMP:  83;

$$

ARZ040-041-300700-
WEST CENTRAL ARKANSAS

CITY           SKY/WX    TMP DP  RH WIND       PRES   REMARKS
MENA           PTCLDY    75  70  83 CALM      29.99R
MOUNT IDA      PTCLDY    73  69  87 CALM      29.95R
6HR MIN TEMP:  73; 6HR MAX TEMP:  88;

$$

ARZ009-017-025-026-028-300700-
NORTHEAST ARKANSAS

CITY           SKY/WX    TMP DP  RH WIND       PRES   REMARKS
JONESBORO      MOCLDY    74  69  85 CALM      29.91R
6HR MIN TEMP:  74; 6HR MAX TEMP:  88;

NEWPORT        CLEAR     77  68  73 CALM      29.93R
6HR MIN TEMP:  77; 6HR MAX TEMP:  90;

WALNUT RIDGE   CLEAR     75  66  73 NW5       29.91S
6HR MIN TEMP:  75; 6HR MAX TEMP:  86;

BLYTHEVILLE    CLEAR     77  70  79 W3        29.90S
6HR MIN TEMP:  76; 6HR MAX TEMP:  88;

$$

ARZ022-023-033-042-044-300700-
CENTRAL ARKANSAS

CITY           SKY/WX    TMP DP  RH WIND       PRES   REMARKS
LITTLE ROCK    PTCLDY    80  69  69 W6        29.92S
6HR MIN TEMP:  80; 6HR MAX TEMP:  88;

N LITTLE ROCK    N/A     79  75  90 W3        29.92S
6HR MIN TEMP:  78; 6HR MAX TEMP:  87;

JACKSONVILLE   PTCLDY    78  74  86 W6        29.91S
6HR MIN TEMP:  78; 6HR MAX TEMP:  89;

SEARCY         MOCLDY    74  70  87 CALM      29.93S
6HR MIN TEMP:  73; 6HR MAX TEMP:  88;

HOT SPRINGS    CLEAR     75  67  76 W3        29.95S
6HR MIN TEMP:  73; 6HR MAX TEMP:  87;

RUSSELLVILLE   CLEAR     71  69  93 CALM      29.93S
6HR MIN TEMP:  71; 6HR MAX TEMP:  89;

CLINTON        FAIR      68  68 100 CALM      29.95S
$$

ARZ036-300700-
EAST ARKANSAS

CITY           SKY/WX    TMP DP  RH WIND       PRES   REMARKS
WEST MEMPHIS   PTCLDY    73  72  96 S7        29.91F
6HR MIN TEMP:  73; 6HR MAX TEMP:  87; 6HR PCP:  0.04;

$$

ARZ050-053-066-070-073-300700-
SOUTHWEST ARKANSAS

CITY           SKY/WX    TMP DP  RH WIND       PRES   REMARKS
ARKADELPHIA    FAIR      75  75 100 CALM      29.94S
6HR MIN TEMP:  75; 6HR MAX TEMP:  90; 6HR PCP: TRACE;

CAMDEN         MOCLDY    77  72  83 NE6       29.94F
TEXARKANA      MOCLDY    77  69  76 S7        29.97R
6HR MIN TEMP:  77; 6HR MAX TEMP:  89;

EL DORADO      CLEAR     76  70  82 N8        29.97R
6HR MIN TEMP:  76; 6HR MAX TEMP:  88;

DE QUEEN       CLOUDY    77  73  87 CALM      29.94R
6HR MIN TEMP:  77; 6HR MAX TEMP:  89;

$$

ARZ056-057-069-300700-
SOUTHEAST ARKANSAS

CITY           SKY/WX    TMP DP  RH WIND       PRES   REMARKS
PINE BLUFF     PTCLDY    79  74  84 SW7       29.92F
6HR MIN TEMP:  79; 6HR MAX TEMP:  87;

STUTTGART      MOCLDY    79  73  83 SW8       29.92S THUNDER
6HR MIN TEMP:  79; 6HR MAX TEMP:  88; 6HR PCP:  0.04;

MONTICELLO     PTCLDY    79  75  87 SW7       29.94S
6HR MIN TEMP:  79; 6HR MAX TEMP:  88;


$$




USA.gov is the U.S. government's official web portal to all federal, state and local government web resources and services.